Home   Weather   Greenwich (historical)   Past weeks
Flag for USA

Past Weather in Greenwich (historical), Massachusetts, USA — Yesterday and Last 2 Weeks

Now
28 °F

Chilly.


Feels Like: 28 °F
Forecast: 39 / 18 °F
Wind: No wind

Location: Brightwood - MADIS Station

Current Time: Nov 16, 2019 at 8:51:00 pm

Latest Report: Nov 16, 2019 at 8:10 pm


Visibility: N/A

Pressure: 30.47 "Hg

Humidity: 36%

Dew Point: 5 °F

Location of Greenwich (historical)Location

Past Weather in Greenwich (historical) — Graph

°F

Greenwich (historical) Temperature Yesterday

Maximum temperature yesterday: 51 °F (at 1:55 pm)
Minimum temperature yesterday: 24 °F (at 4:10 am)
Average temperature yesterday: 37 °F

High & Low Weather Summary for the Past Weeks

 TemperatureHumidityPressure
High54 °F (Nov 3, 1:01 pm)96% (Nov 3, 8:11 am)30.47 "Hg (Nov 3, 8:11 am)
Low17 °F (Nov 14, 6:05 am)24% (Nov 16, 3:31 pm)29.62 "Hg (Nov 12, 5:35 am)
Average37 °F66%30.12 "Hg
* Reported Nov 1 8:32 pm — Nov 16 7:20 pm, Greenwich (historical). Weather by CustomWeather, © 2019

Note: Actual official high and low records may vary slightly from our data, if they occured in-between our weather recording intervals... More about our weather records

Advertising

Greenwich (historical) Weather History for the Previous 24 Hours

Scroll right to see more
 ConditionsComfort  
Time TempWeatherWind HumidityBarometerVisibility
7:20 pm
Sat, Nov 16
29 °FChilly.No wind35%30.46 "HgN/A
7:15 pm29 °FChilly.No wind34%30.45 "HgN/A
6:50 pm29 °FChilly.No wind35%30.44 "HgN/A
6:45 pm29 °FChilly.No wind35%30.44 "HgN/A
6:35 pm29 °FChilly.No wind35%30.44 "HgN/A
5:45 pm30 °FChilly.No wind29%30.43 "HgN/A
5:25 pm31 °FChilly.1 mph28%30.43 "HgN/A
5:10 pm31 °FChilly.No wind28%30.43 "HgN/A
4:50 pm32 °FChilly.No wind29%30.43 "HgN/A
4:40 pm32 °FChilly.No wind28%30.43 "HgN/A
4:25 pm33 °FChilly.1 mph26%30.42 "HgN/A
3:31 pm35 °FChilly.1 mph24%30.41 "HgN/A
2:10 pm36 °FChilly.2 mph29%30.41 "HgN/A
1:25 pm36 °FChilly.2 mph28%30.42 "HgN/A
1:05 pm36 °FChilly.2 mph30%30.43 "HgN/A
12:20 pm34 °FChilly.3 mph31%30.44 "HgN/A
12:05 pm34 °FChilly.3 mph31%30.45 "HgN/A
11:25 am33 °FChilly.3 mph32%30.45 "HgN/A
11:10 am33 °FChilly.2 mph34%30.46 "HgN/A
10:50 am32 °FChilly.3 mph33%30.47 "HgN/A
10:25 am31 °FChilly.2 mph36%30.46 "HgN/A
10:20 am31 °FChilly.3 mph34%30.46 "HgN/A
9:25 am29 °FChilly.3 mph35%30.47 "HgN/A
9:16 am29 °FChilly.2 mph35%30.46 "HgN/A
8:31 am27 °FChilly.4 mph36%30.46 "HgN/A
8:16 am27 °FChilly.2 mph36%30.46 "HgN/A
7:31 am26 °FChilly.2 mph38%30.43 "HgN/A
7:00 am26 °FChilly.2 mph38%30.42 "HgN/A
6:25 am27 °FChilly.3 mph36%30.40 "HgN/A
6:05 am27 °FChilly.2 mph34%30.39 "HgN/A
5:35 am28 °FChilly.2 mph35%30.37 "HgN/A
5:16 am28 °FChilly.4 mph35%30.36 "HgN/A
5:11 am28 °FChilly.2 mph36%30.35 "HgN/A
4:31 am29 °FChilly.2 mph35%30.33 "HgN/A
4:05 am30 °FChilly.1 mph39%30.31 "HgN/A
3:16 am32 °FChilly.1 mph56%30.26 "HgN/A
2:50 am34 °FChilly.4 mph56%30.25 "HgN/A
2:40 am35 °FChilly.1 mph53%30.24 "HgN/A
1:45 am37 °FChilly.1 mph53%30.21 "HgN/A
1:35 am38 °FChilly.3 mph52%30.20 "HgN/A
1:10 am39 °FChilly.3 mph55%30.19 "HgN/A
12:48 am39 °FChilly.1 mph60%30.17 "HgN/A
12:25 am40 °FQuite cool.3 mph60%30.16 "HgN/A
11:25 pm
Fri, Nov 15
40 °FQuite cool.3 mph61%30.16 "HgN/A
11:10 pm40 °FQuite cool.3 mph60%30.16 "HgN/A
10:46 pm41 °FQuite cool.3 mph60%30.16 "HgN/A
10:25 pm41 °FQuite cool.1 mph59%30.16 "HgN/A
10:16 pm41 °FQuite cool.2 mph58%30.16 "HgN/A
9:32 pm41 °FQuite cool.2 mph56%30.13 "HgN/A
8:31 pm42 °FQuite cool.4 mph60%30.11 "HgN/A
Weather by CustomWeather, © 2019

See weather overview